カタログに戻る

CZ-6A DEB

運用中PO
NORAD 60826·DEBRIS·🇨🇳 China

打ち上げ Aug 6, 2024 から Taiyuan Satellite Launch Center

Loading…

次のパス (今後24時間)

TLE

最新Source: Space-Track

元期: Sep 14, 2026, 06:51 UTC

1 60826U 24140HD  26257.28563057  .00000782  00000-0  31898-3 0  9990
2 60826  88.9692 261.4108 0029038 187.9112 172.1628 14.26238559108538

AllMySatでCZ-6A DEBをリアルタイム追跡

Download on the App Store